CAPE
6 2 2 2 5 11 13 11 14 11 7 6 6 6 5 5 5 2 0 0 0 0 0 0 0 0 0 0 0 0 0 0 0 0 0 0 0 0 0 11 68 21 100 96 87 0 0 21 104 490 264 291 61 26
1 1 4 2 4 10 10 12 10 14 13 8 6 5 5 3 5 0 0 0 0 0 0 0 0 0 0 0 0 0 0 0 0 0 0 0 0 0 0 0 3 66 38 175 131 62 3 0 6 0 0 0 0 0
6 5 5 5 3 4 7 7 11 5 9 7 5 4 4 5 6 5 0 0 0 0 0 0 0 0 0 0 0 0 0 0 0 0 0 0 0 0 0 0 0 0 0 0 12 0 6 0 0 0 0 0 0 0
6 6 6 7 6 7 10 11 9 8 1 4 3 3 5 6 6 7 0 0 0 0 0 0 0 0 0 0 0 0 0 0 0 0 0 0 0 0 0 0 0 0 0 0 0 0 0 0 0 0 0 0 0 0
1 5 2 2 2 4 9 7 10 9 6 6 7 5 4 6 5 4 0 0 0 0 0 0 0 0 0 0 0 0 0 0 0 0 0 0 0 0 0 0 0 0 0 0 0 0 0 0 0 0 0 0 0 0
1 1 3 6 2 1 6 6 6 8 0 1 5 3 4 5 5 0 0 0 0 9 4 0 0 0 0 0 0 0 0 0 0 0 0 0 0 0 0 0 0 0 0 0 0 0 0 0 0 0 0 0 14 232
0 0 0 1 4 1 3 5 4 2 2 2 2 0 0 1 1 0 0 0 0 0 0 0 0 0 0 0 0 0 0 0 0 0 0 0 0 0 0 0 0 4 0 0 0 0 0 0 0 0 0 0 48 264
0 0 0 3 3 3 2 4 3 1 1 1 0 0 0 0 0 0 0 0 0 0 0 0 0 4 2 0 0 0 0 0 0 0 0 0 0 10 1 0 37 8 0 0 0 0 0 0 0 0 0 20 91 529
0 0 0 2 3 3 4 4 2 1 0 0 0 0 0 0 0 1 0 0 0 0 0 4 0 40 21 29 54 38 63 25 30 0 0 0 0 0 82 66 20 0 0 5 0 0 0 0 0 0 0 13 127 349
0 3 5 4 5 5 2 1 1 0 0 0 0 0 4 0 0 0 0 0 0 0 0 0 0 0 19 58 51 31 39 10 11 1 13 18 6 65 28 22 0 0 0 0 0 0 0 0 0 9 30 53 166 429
3 2 0 1 1 0 4 1 0 0 0 0 0 0 0 0 0 2 8 11 15 13 0 0 0 0 44 141 154 127 65 67 39 20 40 22 80 81 34 0 0 0 0 0 0 0 0 0 0 18 138 150 270 306
1 0 1 0 0 1 3 1 0 0 0 0 0 0 0 0 0 12 22 23 56 71 244 182 36 0 240 255 159 133 59 75 49 187 108 118 235 101 50 2 0 0 0 0 0 0 0 2 7 29 115 152 366 315
1 5 3 0 1 2 1 1 1 0 0 0 0 0 9 0 1 8 0 44 121 57 149 303 238 120 198 186 214 188 143 88 83 119 69 214 483 217 85 13 0 0 0 0 0 0 0 6 8 59 30 343 415 375
5 6 5 4 1 0 0 0 0 0 1 15 38 7 11 19 23 23 76 86 213 383 74 0 175 105 388 189 295 125 199 169 93 38 129 298 496 101 77 69 0 0 0 0 0 2 3 19 41 4 77 271 333 343
8 7 1 0 0 0 0 0 0 0 0 22 42 0 2 18 15 34 63 35 99 126 146 4 55 131 56 155 244 129 98 86 135 109 346 428 449 303 129 52 0 0 1 1 1 11 105 131 193 117 193 206 261 359
8 1 0 0 0 0 0 0 0 0 22 3 3 1 0 9 41 13 40 93 124 139 125 119 65 48 84 65 86 122 130 103 167 249 411 537 552 360 161 93 36 116 103 70 118 71 203 190 156 200 255 176 142 363
8 1 0 0 0 0 0 0 4 16 19 11 0 0 0 5 2 16 17 98 135 182 115 63 0 23 9 102 125 175 176 218 250 359 338 424 419 223 130 23 164 285 258 245 217 158 134 126 152 269 243 54 69 258
6 3 0 0 0 1 19 0 0 21 27 13 5 1 4 32 25 30 27 48 92 17 39 40 53 57 86 68 118 101 141 55 406 502 466 687 566 311 132 125 326 273 256 174 147 118 48 29 10 3 1 6 111 46
6 9 1 2 6 3 9 16 8 11 19 19 16 19 20 32 17 35 7 35 116 58 23 32 18 17 1 31 134 53 147 52 30 285 611 526 372 212 118 366 337 263 19 2 0 0 8 3 8 5 13 17 1 12
13 10 4 7 19 18 10 7 1 9 3 2 0 14 41 16 21 65 21 25 57 78 117 104 55 28 35 41 265 234 105 178 113 348 396 436 423 408 442 342 336 428 20 24 11 0 0 0 0 0 2 9 5 21
9 2 10 18 26 24 8 6 2 8 5 6 4 25 21 77 68 63 61 54 59 30 24 10 24 1 12 171 94 106 25 58 130 280 295 393 301 338 443 481 663 508 111 13 4 0 38 44 13 21 28 0 0 17
15 15 21 24 15 11 10 2 6 4 2 8 2 4 17 14 57 80 22 23 19 5 7 7 31 47 55 142 91 14 40 84 3 75 0 0 263 285 345 296 352 58 35 34 21 1 27 163 123 96 108 49 38 68
10 15 20 12 13 8 0 10 11 11 33 46 20 17 48 89 136 126 45 23 2 1 1 24 46 300 306 105 143 42 13 0 5 105 95 43 77 270 205 208 126 101 180 70 87 83 119 120 52 11 79 108 49 50
0 14 10 15 8 0 7 8 14 11 27 23 17 26 35 151 130 57 1 10 9 91 43 143 214 79 90 296 218 303 94 56 23 66 75 110 31 91 136 79 60 36 117 145 72 196 81 50 77 30 41 54 18 39
5 0 2 0 11 8 7 23 27 34 26 35 28 11 50 110 49 56 28 65 217 336 148 352 178 254 88 37 158 76 15 7 32 71 307 230 63 48 217 99 195 154 55 90 123 126 161 131 29 28 34 37 24 57
1 3 1 11 21 13 28 15 20 24 33 20 11 20 100 61 42 25 123 78 201 265 220 114 260 124 121 161 50 129 51 51 227 211 94 133 37 43 157 198 240 280 91 72 40 72 78 119 128 146 40 1 1 23
3 6 14 18 28 23 11 15 5 10 14 18 53 61 35 17 25 150 180 222 261 13 3 5 36 31 122 32 17 199 66 275 426 197 212 150 52 67 130 302 466 464 307 194 256 285 54 122 110 37 84 27 26 23
10 12 25 48 25 32 21 24 19 14 12 20 46 30 37 11 69 245 14 60 121 43 3 0 39 37 6 0 0 260 163 176 105 133 41 81 106 53 67 31 111 102 310 34 47 116 147 127 182 104 35 31 74 40
16 6 12 11 32 32 13 8 10 4 23 12 10 53 32 51 77 66 51 82 38 41 40 13 0 1 0 0 6 61 78 190 151 68 114 124 67 44 33 77 15 212 146 155 88 34 1 56 174 175 311 122 70 91
8 11 9 7 15 23 10 0 0 0 5 12 17 4 20 27 140 82 55 42 47 5 54 199 71 0 11 87 140 165 246 57 8 10 26 58 194 110 108 66 26 19 12 16 5 14 55 0 0 10 29 101 121 182
37 51 18 13 13 15 12 6 5 2 1 0 0 0 0 0 0 0 4 20 30 9 10 29 143 81 160 181 324 325 99 57 71 49 45 91 192 216 298 191 51 34 2 58 106 55 66 86 0 0 2 63 104 15
8 7 13 7 5 2 0 0 0 0 0 0 0 4 13 17 0 0 0 2 9 9 12 0 26 19 18 24 180 304 46 158 401 88 79 49 130 220 198 111 78 38 0 67 161 35 72 12 19 4 2 44 47 37
1 4 6 6 0 0 3 0 0 0 0 4 11 18 16 11 16 6 69 12 16 5 18 9 19 93 312 265 166 72 77 629 4 0 0 81 121 140 128 254 64 71 43 144 57 98 69 38 20 230 155 35 23 50
CIN
-0 -0 -0 -0 -0 -0 -1 -1 -0 -1 -0 -0 -0 -0 -0 -0 -0 -0 -0 -0 -0 -0 -0 -0 -0 -0 -0 -0 -0 -0 -0 -0 -0 -0 -0 -0 -0 -0 -0 -45 -34 -18 -36 -25 -10 -0 -0 -195 -171 -104 -206 -203 -242 -181
-0 -0 -0 -0 -0 -0 -1 -1 -0 -2 -0 -0 -0 -0 -0 -0 -0 -0 -0 -0 -0 -0 -0 -0 -0 -0 -0 -0 -0 -0 -0 -0 -0 -0 -0 -0 -0 -0 -0 -0 -8 -41 -86 -64 -82 -67 -8 -0 -25 -0 -0 -0 -0 -0
-0 -0 -0 -0 -0 -0 -0 -0 -1 -0 -0 -0 -0 -0 -0 -0 -0 -0 -0 -0 -0 -0 -0 -0 -0 -0 -0 -0 -0 -0 -0 -0 -0 -0 -0 -0 -0 -0 -0 -0 -0 -10 -0 -0 -72 -0 -59 -0 -0 -0 -0 -0 -0 -0
-0 -0 -0 -0 -0 -0 -0 -1 -0 -0 -0 -0 -0 -0 -0 -0 -0 -0 -0 -0 -0 -0 -0 -0 -0 -0 -0 -0 -0 -0 -0 -0 -0 -0 -0 -0 -0 -0 -0 -0 -0 -0 -0 -0 -0 -0 -0 -0 -0 -0 -0 -0 -0 -0
-0 -0 -0 -0 -0 -0 -0 -0 -0 -0 -0 -0 -0 -0 -0 -0 -0 -0 -0 -0 -0 -0 -0 -0 -0 -0 -0 -0 -0 -0 -0 -0 -0 -0 -0 -0 -0 -0 -0 -0 -0 -0 -0 -0 -0 -0 -0 -0 -0 -0 -0 -0 -0 -0
-0 -0 -0 -0 -0 -0 -0 -0 -0 -0 -0 -0 -0 -0 -0 -0 -0 -0 -0 -0 -0 -20 -4 -0 -0 -0 -0 -0 -0 -0 -0 -0 -0 -0 -0 -0 -0 -0 -0 -0 -0 -0 -0 -0 -0 -0 -0 -0 -0 -0 -0 -0 -70 -39
-0 -0 -0 -0 -0 -0 -0 -0 -0 -0 -0 -0 -0 -0 -0 -0 -0 -0 -0 -0 -0 -0 -0 -0 -0 -0 -0 -0 -0 -0 -0 -0 -0 -0 -0 -0 -0 -0 -0 -0 -0 -37 -0 -0 -0 -0 -0 -0 -0 -0 -0 -0 -67 -33
-0 -0 -0 -0 -0 -0 -0 -0 -0 -0 -0 -0 -0 -0 -0 -0 -0 -0 -0 -0 -0 -0 -0 -0 -0 -8 -14 -0 -0 -0 -0 -9 -0 -0 -0 -0 -0 -32 -8 -0 -48 -64 -0 -0 -0 -0 -0 -0 -0 -0 -0 -108 -74 -76
-0 -0 -0 -0 -0 -0 -0 -0 -0 -0 -0 -0 -0 -0 -0 -0 -8 -4 -0 -0 -0 -0 -2 -68 -0 -7 -29 -41 -45 -47 -41 -30 -30 -0 -0 -0 -0 -0 -37 -129 -93 -0 -0 -92 -0 -0 -0 -0 -0 -0 -0 -107 -52 -30
-0 -0 -0 -0 -0 -0 -0 -0 -0 -0 -0 -0 -0 -0 -9 -0 -0 -0 -0 -0 -0 -0 -0 -0 -0 -0 -33 -43 -28 -39 -41 -38 -16 -1 -25 -23 -11 -25 -35 -80 -0 -0 -0 -0 -0 -0 -0 -0 -0 -80 -100 -82 -41 -15
-0 -0 -0 -0 -0 -0 -0 -0 -0 -0 -0 -0 -0 -0 -0 -0 -0 -2 -2 -8 -6 -2 -0 -0 -0 -0 -44 -21 -43 -71 -38 -30 -11 -10 -19 -5 -20 -75 -87 -9 -0 -0 -0 -0 -0 -0 -0 -0 -0 -43 -60 -73 -25 -33
-0 -0 -0 -0 -0 -0 -0 -0 -0 -0 -0 -0 -0 -0 -0 -0 -0 -2 -10 -3 -5 -1 -10 -9 -58 -0 -23 -48 -30 -42 -22 -35 -7 -25 -16 -15 -31 -60 -70 -43 -0 -0 -0 -0 -0 -0 -0 -29 -84 -112 -66 -47 -9 -23
-0 -0 -0 -0 -0 -0 -0 -0 -0 -0 -0 -0 -0 -0 -1 -0 -1 -1 -0 -1 -4 -53 -49 -16 -8 -24 -17 -38 -16 -17 -6 -5 -31 -13 -9 -58 -47 -80 -107 -126 -0 -0 -0 -0 -0 -0 -0 -22 -45 -81 -22 -11 -13 -15
-0 -0 -0 -1 -0 -0 -0 -0 -0 -0 -0 -1 -1 -4 -2 -2 -4 -3 -6 -17 -3 -39 -165 -0 -49 -40 -27 -20 -15 -10 -13 -10 -4 -5 -15 -58 -35 -96 -84 -88 -0 -0 -0 -0 -0 -28 -26 -91 -71 -33 -23 -23 -17 -6
-0 -0 -0 -0 -0 -0 -0 -0 -0 -0 -0 -0 -1 -0 -1 -6 -19 -26 -15 -12 -6 -75 -107 -112 -57 -53 -95 -20 -10 -8 -15 -7 -6 -28 -55 -58 -47 -53 -55 -57 -0 -0 -12 -34 -2 -28 -32 -26 -21 -35 -17 -21 -33 -20
-0 -0 -0 -0 -0 -0 -0 -0 -0 -0 -9 -12 -6 -0 -0 -5 -3 -6 -9 -20 -50 -48 -43 -78 -31 -33 -15 -10 -8 -9 -3 -8 -38 -31 -44 -55 -35 -26 -31 -35 -36 -9 -14 -14 -16 -27 -15 -20 -21 -25 -15 -52 -79 -39
-0 -0 -14 -0 -0 -0 -0 -0 -10 -2 -2 -4 -0 -0 -0 -12 -30 -11 -7 -22 -54 -59 -45 -37 -9 -8 -74 -23 -6 -17 -10 -48 -41 -66 -76 -84 -56 -50 -37 -40 -9 -16 -26 -19 -15 -14 -11 -8 -11 -9 -12 -109 -99 -44
-0 -2 -0 -0 -0 -29 -0 -0 -1 -4 -0 -4 -3 -0 -2 -20 -20 -2 -34 -37 -52 -88 -33 -7 -2 -7 -10 -6 -6 -47 -100 -149 -54 -68 -65 -53 -45 -39 -36 -13 -23 -24 -16 -6 -5 -5 -31 -65 -6 -5 -0 -21 -25 -61
-0 -2 -4 -0 -0 -0 -0 -1 -6 -0 -0 -0 -0 -1 -12 -3 -31 -23 -55 -47 -16 -65 -70 -11 -11 -4 -14 -58 -36 -174 -72 -117 -171 -58 -64 -59 -55 -61 -54 -17 -25 -23 -52 -29 -0 -0 -23 -8 -27 -32 -15 -11 -14 -63
-0 -0 -0 -0 -0 -0 -0 -1 -6 -2 -0 -0 -0 -2 -1 -12 -29 -2 -28 -22 -21 -11 -7 -6 -6 -20 -26 -56 -47 -74 -134 -91 -57 -58 -60 -58 -62 -53 -26 -32 -37 -32 -86 -75 -76 -0 -0 -0 -0 -0 -34 -50 -55 -94
-0 -0 -1 -0 -0 -0 -0 -0 -0 -0 -1 -0 -1 -2 -4 -10 -1 -0 -3 -13 -12 -9 -1 -5 -19 -62 -87 -74 -100 -137 -233 -187 -89 -56 -52 -39 -86 -51 -48 -40 -39 -34 -32 -26 -35 -0 -58 -74 -75 -86 -108 -2 -28 -144
-1 -0 -0 -0 -0 -0 -0 -1 -0 -1 -1 -2 -0 -3 -0 -0 -3 -11 -35 -16 -3 -5 -3 -11 -11 -24 -35 -71 -103 -125 -187 -235 -248 -57 -0 -0 -46 -52 -47 -43 -41 -55 -46 -64 -83 -10 -51 -27 -55 -68 -70 -89 -110 -115
-0 -0 -0 -0 -0 -0 -0 -0 -0 -0 -0 -1 -1 -0 -0 -1 -3 -10 -7 -9 -9 -21 -21 -19 -35 -25 -27 -90 -103 -121 -135 -54 -177 -73 -72 -51 -47 -53 -44 -55 -46 -58 -37 -74 -87 -45 -22 -41 -150 -102 -81 -73 -80 -62
-0 -0 -0 -0 -0 -0 -0 -0 -1 -0 -0 -0 -0 -0 -0 -1 -6 -1 -0 -15 -20 -21 -33 -39 -15 -21 -35 -35 -50 -76 -67 -90 -130 -63 -49 -49 -8 -61 -46 -50 -51 -40 -55 -49 -60 -59 -57 -43 -61 -96 -77 -84 -38 -55
-0 -0 -0 -0 -0 -0 -1 -0 -0 -0 -0 -0 -0 -0 -0 -2 -8 -2 -0 -4 -46 -38 -64 -47 -70 -22 -6 -11 -34 -73 -140 -110 -77 -74 -42 -52 -87 -41 -27 -38 -44 -41 -39 -35 -69 -42 -44 -53 -72 -49 -21 -8 -22 -38
-0 -0 -0 -0 -0 -0 -0 -0 -1 -0 -0 -0 -0 -2 -7 -5 -0 -1 -8 -31 -17 -47 -61 -116 -76 -101 -106 -37 -22 -44 -86 -121 -74 -49 -61 -40 -30 -36 -24 -24 -29 -51 -47 -37 -67 -25 -32 -59 -42 -18 -57 -30 -15 -14
-0 -0 -0 -0 -0 -1 -0 -2 -1 -0 -0 -0 -0 -4 -21 -1 -0 -11 -29 -22 -18 -72 -144 -145 -179 -109 -117 -179 -186 -41 -24 -40 -41 -32 -42 -55 -43 -63 -36 -38 -27 -51 -50 -20 -29 -10 -30 -32 -34 -46 -34 -34 -44 -52
-0 -0 -0 -1 -0 -0 -0 -0 -0 -0 -0 -2 -5 -1 -0 -4 -6 -9 -104 -91 -67 -86 -97 -15 -201 -222 -300 -35 -0 -39 -57 -55 -56 -30 -25 -37 -39 -101 -99 -96 -168 -42 -70 -122 -67 -72 -51 -1 -24 -32 -20 -31 -53 -36
-0 -0 -0 -0 -0 -0 -0 -0 -0 -0 -29 -13 -1 -7 -11 -50 -40 -49 -72 -70 -86 -96 -43 -198 -0 -43 -0 -0 -186 -157 -138 -29 -31 -25 -11 -15 -66 -172 -181 -179 -194 -122 -186 -149 -108 -107 -5 -66 -56 -62 -41 -31 -51 -55
-0 -1 -0 -0 -0 -0 -0 -0 -0 -0 -4 -1 -0 -1 -2 -15 -24 -15 -22 -23 -10 -22 -18 -36 -153 -0 -94 -136 -85 -87 -69 -17 -19 -19 -19 -19 -58 -124 -231 -272 -206 -166 -240 -383 -198 -104 -106 -0 -0 -58 -23 -54 -48 -47
-1 -2 -0 -0 -0 -0 -0 -1 -0 -1 -1 -0 -0 -0 -0 -14 -0 -0 -33 -23 -10 -8 -44 -15 -65 -108 -65 -63 -39 -34 -8 -8 -18 -49 -31 -26 -71 -120 -103 -158 -221 -163 -90 -129 -120 -141 -88 -66 -0 -0 -22 -65 -30 -27
-2 -0 -0 -0 -0 -0 -0 -0 -1 -0 -0 -0 -0 -3 -0 -1 -0 -0 -0 -22 -24 -49 -72 -2 -62 -66 -106 -189 -112 -129 -166 -74 -30 -46 -93 -78 -51 -73 -79 -85 -172 -280 -0 -188 -90 -105 -152 -151 -44 -60 -42 -55 -64 -56
-0 -0 -0 -0 -0 -4 -5 -0 -0 -0 -0 -48 -30 -6 -3 -2 -4 -20 -20 -38 -24 -56 -72 -79 -69 -31 -16 -24 -77 -158 -128 -71 -44 -0 -0 -88 -112 -102 -73 -48 -189 -117 -162 -193 -147 -188 -99 -107 -74 -55 -49 -46 -54 -66
Wind_Speed
15 16 16 16 16 15 15 15 15 15 16 17 17 18 18 18 16 9 9 9 5 4 12 8 11 7 8 5 4 8 8 8 3 0 3 6 5 6 4 4 4 2 2 3 4 6 6 10 9 7 3 3 4 6
15 16 15 17 16 15 16 15 16 16 15 16 17 17 16 15 14 12 5 8 9 4 8 15 18 17 16 12 4 5 3 5 2 3 5 5 4 5 5 4 9 6 4 1 2 4 7 11 10 5 5 5 6 7
14 14 14 15 17 18 15 16 16 17 16 16 18 17 16 13 11 6 6 6 5 5 9 8 11 16 15 13 8 1 4 4 4 1 1 3 2 2 3 4 5 3 7 3 5 6 6 10 8 8 7 8 7 5
15 15 15 15 16 17 18 17 16 16 19 17 17 17 16 14 11 8 4 6 5 5 5 4 9 2 6 6 7 6 6 7 4 2 1 2 2 3 3 3 3 2 4 1 2 6 4 9 6 4 8 8 7 8
14 15 17 17 17 17 18 18 18 18 19 18 18 18 16 15 13 8 7 6 8 4 5 9 16 13 8 5 6 4 4 4 2 3 2 4 4 2 3 4 4 4 4 3 3 4 4 6 9 9 8 8 10 6
13 14 14 16 17 19 18 19 20 20 21 21 20 18 16 13 9 5 3 4 4 4 3 5 6 7 3 5 5 5 4 4 3 2 4 4 3 4 2 1 5 6 9 8 4 6 4 6 6 8 8 11 13 8
13 13 13 15 17 19 19 19 21 21 23 21 19 18 14 9 4 4 3 2 7 4 3 5 5 6 6 6 4 4 5 3 3 3 3 3 4 1 3 3 1 7 8 7 7 8 7 7 7 8 9 13 11 6
13 13 13 15 16 17 20 21 22 24 24 22 20 18 12 5 6 6 2 10 2 3 3 4 5 2 5 4 3 5 4 4 3 4 2 3 4 2 3 5 8 7 7 7 6 5 5 7 9 10 11 14 12 7
14 14 13 14 16 17 19 21 24 27 29 23 19 13 2 3 3 3 3 4 2 3 3 4 4 3 4 4 2 2 2 1 3 4 5 3 3 3 4 8 8 7 4 4 6 7 7 7 8 7 8 11 11 11
14 14 15 15 16 17 20 21 23 27 30 26 4 3 3 2 7 3 2 3 4 4 4 5 4 5 3 3 2 2 1 3 2 5 2 4 4 2 11 9 7 7 5 5 5 5 6 6 7 8 8 10 12 10
14 16 17 17 18 19 18 20 21 26 17 4 5 4 6 1 3 4 4 4 5 4 5 5 8 7 5 2 2 3 2 3 2 5 3 2 2 3 8 8 6 4 5 7 7 6 6 5 7 7 7 9 10 11
15 16 16 17 18 19 18 18 17 10 6 8 7 8 5 4 4 5 4 4 5 5 4 3 4 5 0 2 1 1 1 3 4 2 1 1 1 5 7 7 7 7 8 7 6 7 6 5 6 6 5 7 7 9
15 14 16 18 19 18 17 16 16 13 15 3 4 5 4 4 3 5 5 5 3 5 6 3 2 2 1 0 1 2 2 5 1 2 3 2 3 6 6 6 6 7 7 7 7 7 9 4 4 5 6 6 8 8
14 15 16 16 17 18 16 10 11 9 4 4 3 6 4 6 5 5 4 2 2 1 3 4 6 3 1 1 1 2 4 1 3 3 3 4 5 4 3 4 5 5 6 6 7 5 5 7 6 6 6 6 7 7
14 15 17 17 8 4 8 11 13 4 4 4 4 5 7 7 1 5 4 3 1 4 3 5 7 2 3 4 3 2 2 5 4 2 3 5 5 5 2 2 2 4 5 5 6 5 6 6 5 5 5 5 6 6
12 16 4 2 5 8 11 12 4 3 3 4 6 7 8 8 5 4 4 1 4 3 1 2 1 3 1 4 3 5 4 2 2 3 5 5 5 4 2 3 3 3 4 5 5 5 5 5 5 4 4 6 5 6
7 4 5 2 8 13 10 3 3 5 5 5 6 7 9 9 9 4 4 1 1 2 3 3 1 3 2 4 5 4 3 3 0 6 6 6 6 4 4 2 3 5 5 5 5 5 3 3 4 4 3 3 4 6
4 3 10 9 9 6 2 5 4 4 7 7 9 8 8 2 4 6 3 2 3 2 4 3 4 4 3 4 1 2 3 3 2 4 5 5 6 5 4 4 5 4 4 4 4 4 3 4 4 2 3 2 2 4
6 7 9 6 3 2 4 3 3 5 6 7 8 7 7 5 5 4 4 4 4 5 6 2 3 3 4 4 2 6 6 1 3 4 5 6 7 6 4 4 5 4 5 3 3 3 4 4 3 2 3 3 3 3
13 14 13 8 4 3 4 4 2 4 5 5 7 8 6 5 6 5 4 5 3 3 4 5 5 5 6 4 4 1 3 3 1 6 4 3 4 6 5 5 4 6 4 4 3 4 6 1 2 3 1 3 4 4
3 3 6 7 4 3 3 3 3 4 5 5 8 6 4 5 7 8 7 7 6 5 7 6 5 5 6 3 4 2 5 3 9 3 4 4 5 5 4 4 6 4 4 2 3 3 4 4 3 2 3 3 4 5
2 4 1 4 2 4 4 3 4 5 4 7 10 8 7 8 6 5 3 5 7 8 7 6 6 8 7 4 5 2 1 8 13 6 3 3 4 6 5 5 5 4 5 4 4 4 5 3 5 5 6 6 5 6
1 1 2 3 4 3 5 2 4 4 5 5 7 5 5 3 3 2 3 5 6 7 8 8 9 8 5 6 3 3 6 5 12 12 5 4 5 4 4 5 6 5 5 5 4 3 2 11 8 5 5 7 6 5
1 2 3 3 5 3 2 3 3 3 4 3 5 5 6 3 2 2 4 5 7 4 6 8 7 5 4 6 8 6 5 7 7 6 5 4 3 4 4 4 3 7 7 6 6 5 7 5 8 7 8 7 5 4
2 3 3 4 3 4 4 3 4 4 4 3 4 5 4 2 3 4 6 3 3 3 0 3 2 5 6 6 8 8 9 6 6 5 4 4 5 3 2 3 3 2 3 8 6 5 4 6 5 6 5 5 8 7
3 4 5 5 4 4 3 3 3 3 2 4 5 5 3 2 3 5 2 2 2 1 2 1 3 4 8 7 6 9 11 10 7 8 8 6 7 7 5 4 4 4 3 4 5 3 7 7 6 6 6 14 11 5
4 5 5 5 2 1 3 3 4 4 4 5 5 1 2 3 3 2 4 3 3 0 4 5 1 3 5 9 11 3 9 10 6 3 5 5 5 6 7 6 5 4 3 2 4 2 9 9 8 10 7 7 7 6
5 5 6 5 4 3 2 2 4 4 5 5 1 2 3 3 3 2 3 3 3 6 8 9 8 8 8 8 6 5 4 4 4 6 3 6 3 6 8 5 3 7 5 7 5 6 5 6 7 8 6 5 6 6
5 6 5 9 6 4 5 5 6 5 2 3 5 2 4 5 4 4 4 6 7 7 3 4 2 4 6 5 4 5 5 6 8 8 6 5 6 3 5 4 6 5 4 4 8 9 8 5 3 2 3 3 5 6
9 8 5 7 8 7 6 8 8 9 9 8 8 9 7 4 3 5 5 8 8 5 1 5 7 5 6 7 8 10 10 10 8 8 8 5 6 5 4 4 4 4 5 5 7 9 11 4 4 3 3 3 2 3
2 1 5 9 12 10 10 11 10 11 10 11 10 10 10 10 9 7 7 7 7 3 3 3 2 5 4 5 7 6 3 3 5 10 12 8 9 6 5 2 4 2 3 4 4 7 10 11 7 6 6 7 7 5
4 8 9 13 12 10 10 11 11 11 10 10 11 10 9 8 11 8 8 7 7 5 5 6 4 7 4 11 4 5 9 8 5 8 11 7 8 8 6 6 6 8 7 7 5 3 3 6 8 6 6 7 8 7
7 8 8 7 6 5 6 6 5 7 10 12 11 10 9 9 12 8 5 7 5 5 6 7 7 8 7 7 10 14 20 0 15 17 12 9 13 10 7 6 6 8 7 4 8 10 12 13 16 12 10 9 10 11
Wind_Direction
342 342 341 337 334 330 330 330 329 331 335 335 334 334 336 340 348 350 279 279 290 279 290 287 331 336 331 340 0 320 338 1 339 229 215 246 255 269 309 313 339 52 71 26 28 46 283 349 44 63 236 270 277 339
336 339 339 343 338 329 328 328 328 327 327 332 332 331 332 335 343 345 278 347 332 253 268 304 283 267 264 276 312 323 292 301 327 26 10 327 338 3 359 330 4 39 79 110 52 170 82 56 82 46 17 338 326 331
323 330 334 333 335 334 329 326 323 326 328 325 326 325 324 324 329 345 291 308 292 261 277 235 245 253 228 228 233 225 302 351 17 125 241 269 317 29 336 304 35 27 48 83 75 29 69 72 51 27 336 295 284 325
322 322 328 329 329 328 328 325 319 319 325 318 319 320 319 314 309 304 278 308 281 280 280 313 1 295 194 254 183 225 258 307 306 347 249 267 293 289 294 285 50 296 12 99 122 31 35 52 56 358 318 331 347 330
317 319 325 328 329 328 325 325 324 319 318 316 315 314 311 309 303 284 252 246 242 286 311 301 305 273 206 217 161 229 261 267 289 312 264 257 256 21 340 34 7 37 343 59 76 35 79 341 338 343 358 334 323 312
318 321 325 324 326 328 326 323 321 320 320 317 311 310 307 305 312 292 240 189 273 275 283 293 328 280 134 132 178 211 224 240 216 223 269 285 350 92 79 269 327 36 60 51 42 22 8 319 357 353 336 327 323 358
315 320 322 323 326 327 324 322 318 316 317 311 310 308 303 291 255 246 341 330 356 320 261 281 279 199 176 175 195 220 220 222 186 237 242 252 286 166 174 213 271 61 62 46 32 23 354 350 322 330 342 339 340 23
309 313 319 319 321 323 325 322 319 315 312 311 309 305 302 276 250 278 229 236 195 268 270 278 272 219 165 215 217 202 192 181 219 212 268 249 302 231 209 212 98 78 53 41 15 337 338 359 7 7 356 350 355 63
309 311 315 316 319 320 325 323 320 317 313 310 305 301 247 211 236 67 100 123 240 290 299 269 289 289 345 269 165 325 65 347 244 180 222 172 230 251 138 110 89 81 67 17 2 357 356 358 338 333 347 342 0 22
309 315 318 320 319 321 326 322 322 320 312 311 278 212 199 35 137 151 117 195 195 205 225 253 301 283 288 341 348 73 204 202 260 238 195 170 220 121 98 96 87 67 39 2 340 346 346 335 338 14 356 354 355 17
312 316 316 318 319 321 321 322 325 326 310 346 338 357 324 154 246 213 237 207 181 222 211 230 221 260 318 19 354 36 338 319 273 255 151 164 184 122 103 102 93 49 21 25 351 342 336 20 23 7 8 354 358 355
308 311 312 314 315 315 315 318 325 326 355 318 294 281 254 245 224 252 222 226 204 241 187 225 218 196 78 39 349 17 353 323 255 343 135 186 114 76 74 69 51 41 24 346 328 345 356 39 26 353 5 2 354 339
306 303 306 309 309 306 306 310 310 294 297 225 208 242 200 221 17 223 226 215 230 336 12 325 253 56 146 236 227 143 213 225 309 269 204 109 96 73 59 43 28 12 1 352 348 334 330 58 6 25 17 19 1 334
296 298 300 298 301 300 302 308 312 321 282 250 259 302 237 211 233 202 290 208 80 29 53 19 314 64 353 2 156 220 244 250 249 236 173 148 129 107 66 48 42 1 346 341 341 5 26 0 22 24 45 45 11 342
296 297 294 296 286 321 319 313 305 293 277 274 271 243 244 258 13 301 311 337 316 127 79 49 275 118 31 314 250 206 260 238 231 128 144 138 136 115 89 62 35 3 346 335 322 325 12 7 14 7 12 44 9 332
305 297 223 203 327 320 315 312 271 240 258 253 250 264 284 296 324 348 328 51 8 350 263 145 22 43 249 246 228 215 234 196 151 142 131 130 122 141 135 83 50 2 343 330 349 9 353 9 358 333 333 66 7 322
295 255 174 255 317 297 286 263 255 219 245 230 243 235 249 272 271 299 295 81 34 64 41 34 97 250 343 280 213 211 303 30 161 99 118 140 155 137 104 72 56 38 29 3 359 355 31 13 350 4 75 40 326 299
237 334 53 13 336 314 273 204 255 244 242 243 263 267 270 244 292 286 308 111 130 139 118 190 286 281 269 287 111 202 107 73 41 131 148 144 135 124 125 92 82 63 34 11 23 7 1 37 55 49 29 7 113 92
265 296 319 340 352 321 277 235 216 257 246 266 269 273 273 278 271 235 268 276 221 165 125 145 208 231 248 319 328 32 329 119 128 225 124 129 144 139 131 122 141 99 76 70 68 84 69 53 74 65 31 39 63 62
268 264 261 250 196 240 257 254 274 267 271 310 297 274 264 254 264 246 238 253 264 222 199 196 199 206 203 265 315 55 347 306 148 125 148 160 146 147 205 181 164 146 159 196 155 138 125 21 7 83 351 24 26 299
235 246 223 190 190 223 294 292 256 247 269 257 285 285 260 273 256 251 239 224 228 221 244 221 194 246 250 208 261 54 357 31 347 123 176 168 169 171 193 163 162 183 205 155 132 155 162 174 206 232 234 214 230 248
238 181 135 190 220 196 246 237 270 313 266 263 282 274 255 249 243 244 229 228 230 231 227 243 249 213 236 202 232 171 78 7 324 265 119 137 140 184 192 191 185 206 153 179 176 206 154 157 178 193 211 242 260 265
252 215 196 176 229 221 259 234 242 236 260 292 315 277 249 241 255 190 233 210 221 218 227 237 234 231 189 182 166 175 154 311 294 266 191 195 194 181 188 182 183 210 168 184 171 190 239 164 195 184 219 245 232 225
170 226 221 212 200 255 237 233 217 256 263 266 260 276 285 251 223 216 247 244 246 221 198 222 215 215 226 203 180 195 190 200 245 282 194 210 185 203 202 190 202 177 200 166 175 190 204 187 199 197 209 216 214 225
212 241 213 239 206 225 241 241 209 224 262 260 281 271 265 305 235 221 236 273 141 131 152 79 29 293 238 209 187 205 206 209 221 257 238 177 155 197 248 162 144 166 141 162 191 197 198 179 200 224 233 161 200 175
230 216 205 212 187 217 226 264 243 274 268 250 248 260 291 299 254 255 2 13 352 43 6 5 60 351 321 303 244 184 201 222 224 230 229 205 183 200 203 188 185 226 205 195 178 211 175 200 209 226 158 168 221 191
244 243 212 226 195 189 257 242 251 259 250 258 240 315 65 283 282 3 318 353 70 44 299 315 46 265 284 298 301 165 175 191 201 237 199 214 239 203 190 178 170 208 203 199 229 154 197 209 198 217 216 188 196 191
244 271 234 209 206 217 265 249 248 240 242 240 339 299 349 352 287 280 262 258 234 185 217 214 211 216 245 260 276 280 168 196 223 264 222 212 203 55 74 54 31 155 66 17 3 317 284 244 217 182 183 202 182 187
232 241 247 249 215 196 217 223 237 239 222 289 291 180 204 225 240 223 246 254 268 262 70 145 240 251 284 279 275 266 273 230 213 208 239 248 101 26 54 55 57 69 76 357 3 17 352 313 116 44 16 220 210 183
237 204 224 241 232 225 214 206 249 264 272 284 295 292 277 262 244 240 249 268 270 283 336 136 189 221 255 255 273 269 255 221 182 181 200 226 150 186 172 203 176 139 90 15 339 316 327 281 276 211 219 245 261 155
242 221 237 242 256 259 258 251 248 254 263 271 272 275 281 280 275 260 263 266 285 299 306 232 185 247 232 275 271 309 297 195 193 150 134 154 167 201 222 115 90 98 154 202 200 272 283 292 253 221 213 216 236 240
239 241 250 264 269 268 262 257 256 257 261 257 252 244 255 264 271 273 245 239 241 223 224 256 191 238 249 283 266 354 307 303 352 161 173 179 167 179 176 137 123 102 56 322 255 217 316 318 279 235 202 218 218 227
214 236 248 270 251 226 220 204 243 250 242 246 251 253 251 251 256 259 244 205 193 194 214 233 243 233 238 190 174 188 228 142 49 27 24 123 166 169 193 173 165 168 170 233 222 199 187 199 260 275 273 233 208 217